This is the latest recevied weather packets stored in our database for station/object F1ZTH-10. If no packets are shown the sender has not sent any weather packets the latest 10 day(s).
| Time | Temp. | Humidity | Pressure | Rain* | Wind** | Luminosity | Snow |
|---|---|---|---|---|---|---|---|
| 1777645664 | 26.67° C | 44% | 982 hPa | - | - | - | - |
| 1777644764 | 27.78° C | 42% | 982 hPa | - | - | - | - |
| 1777643864 | 28.33° C | 42% | 982 hPa | - | - | - | - |
| 1777642964 | 27.78° C | 44% | 982 hPa | - | - | - | - |
| 1777642064 | 27.22° C | 45% | 982 hPa | - | - | - | - |
| 1777641164 | 27.22° C | 46% | 982 hPa | - | - | - | - |
| 1777640264 | 27.22° C | 42% | 983 hPa | - | - | - | - |
| 1777639364 | 26.67° C | 43% | 983 hPa | - | - | - | - |
| 1777638464 | 26.67° C | 44% | 983 hPa | - | - | - | - |
| 1777637564 | 26.11° C | 44% | 983 hPa | - | - | - | - |
| 1777636663 | 26.67° C | 43% | 983 hPa | - | - | - | - |
| 1777635763 | 26.67° C | 45% | 983 hPa | - | - | - | - |
| 1777634863 | 26.67° C | 46% | 983 hPa | - | - | - | - |
| 1777633963 | 26.67° C | 47% | 983 hPa | - | - | - | - |
| 1777633064 | 25.56° C | 46% | 983 hPa | - | - | - | - |
| 1777632163 | 25° C | 46% | 983 hPa | - | - | - | - |
| 1777631263 | 25° C | 46% | 983 hPa | - | - | - | - |
| 1777630363 | 25.56° C | 48% | 984 hPa | - | - | - | - |
| 1777629463 | 25.56° C | 49% | 984 hPa | - | - | - | - |
| 1777628563 | 25° C | 49% | 984 hPa | - | - | - | - |
| 1777627663 | 25° C | 50% | 984 hPa | - | - | - | - |
| 1777626763 | 25° C | 49% | 983 hPa | - | - | - | - |
| 1777625863 | 24.44° C | 51% | 983 hPa | - | - | - | - |
| 1777624963 | 23.89° C | 53% | 983 hPa | - | - | - | - |
| 1777624062 | 23.89° C | 54% | 983 hPa | - | - | - | - |
* Rain since midnight (hover to see other rain measurements)
** Current wind speed in m/s (hover to see current wind gust speed)